Location: Buckland
(65.9785°N, 161.1281°W)
Time: 06:33:43
(UTC+00:00)

Transit 2A Rocket - Pass Details

Date: 30 November 2020
Orbit: 592 x 910 km, 66.7° (Epoch: 21 January)

Event Time Altitude Azimuth Distance (km) Brightness Sun altitude
Exits shadow 14:37:48 52° 92° (E) 976 5.7 -31.4°
Drops below altitude 10° 14:41:47 10° 69° (ENE) 2,264 8.3 -31.1°
Sets 14:44:03 0° 66° (ENE) 3,138 9.3 -30.8°
